COSMOS 970 DEB, 65011

Orbit data source: Space-Track

COSMOS 970 DEB, 65011 is space debris in LEO originally from a launch on Wed, 21 Dec 1977 UTC launched from the Tyuratam Missile And Space Complex (TTMTR). Debris objects in space refer to the collection of defunct objects orbiting the Earth. Examples of debris include non-operational satellites, rocket bodies, and fragments generated from explosions, collisions, or faulty payload assembly.

Loading next visibility...
Identifier
65011, 1977-121DY
Orbit
LEO
Country
Flag of CISCIS
Related business
Manufacturer
Unknown
Mission
Spacecraft
Bus & Motor
Unknown
Mass
Unknown
Launch date (UTC)
1977-12-21 (48 years ago)
Launch vehicle
Unknown
Launch site
Tyuratam Missile And Space Complex (TTMTR)
Object type
Payload
Rocket body
Debris
Shape & HBR
Unknown shape, 0.1 m
Radar Cross Section
Medium (>0.1 m² and <1 m²)

Expand to show TLE details & history
Last TLE update: 2 days ago

TLE from 2 days ago
0 COSMOS 970 DEB
1 65011U 77121DY  26170.09275602  .00000299  00000-0  36224-3 0  9998
2 65011  65.8334  51.2515 0123147 101.0342  48.8323 13.77214709631405
Epoch: 2026-06-19T02:13Z
TLE epoch observation values (Epoch: 2026-06-19T02:13:34.120Z)
Latitude
26.35701°
Longitude
-82.2445°
Altitude
917.107 km
Speed
7.426 km/s
True Right ascension
14h 33m 53s
True Declination
26° 13' 24"
Sunlit
Object was in daylight at epoch
Visualization orbit readout
Latitude
Unknown
Longitude
Unknown
Altitude
Unknown
Speed
Unknown
Apparent Right ascension
Unknown
Apparent Declination
Unknown
Sunlit
N/A
Visualization observer readout
Local Sidereal Time
07:17:01
Azimuth
Unknown
Elevation
Unknown
Doppler factor
Unknown
Orbital elements
Apogee altitude
1,062.816 km
Perigee altitude
881.779 km
Semi-major axis
7,350.435 km
Eccentricity
0.01231
Inclination
65.8334°
RAAN
51.2515°
Arg. of periapsis
101.0342°
True anomaly
49.90541°
Mean anomaly
48.8323°
Eccentric anomaly
49.36777°
Mean motion
3.44408 °/min
Orbital period
104.53 mins
BSTAR
0.00036224
Loading maneuver chart data...
Computing Atmospheric mass density...
Loading historical data...
Loading historical data...
Loading historical data...
Loading historical data...
Loading historical data...
Loading historical data...
Loading historical data...

Documentation

Showing up to 5 results
|